Regional Weather Roundup
Issued by NWS

Home | Current Version | Previous Version | Text Only | Print | Product List | Glossary Off
Versions: 1 2 3 4 5 6 7 8 9 10 11 12 13 14 15 16 17 18 19 20 21 22 23 24 25 26 27 28 29 30 31 32 33 34 35 36 37 38 39 40 41 42 43 44 45 46 47 48 49 50

000
ASUS43 KDMX 231706
RWRIA

WEATHER ROUNDUP FOR IOWA
NATIONAL WEATHER SERVICE DES MOINES IA
1100 AM CST THU NOV 23 2017

NOTE: "FAIR" INDICATES FEW OR NO CLOUDS BELOW 12,000 FEET WITH NO
SIGNIFICANT WEATHER AND/OR OBSTRUCTIONS TO VISIBILITY.

* - THESE STATIONS ARE NOT NWS STATIONS...THUS NOT UNDER NWS
QUALITY CONTROL.  THEY ALSO DO NOT REPORT WEATHER SUCH
AS PRECIPITATION OR FOG.

IAZ001>003-012>014-020>022-031>034-043>046-231800-
   NORTHWEST IOWA

CITY           SKY/WX    TMP DP  RH WIND       PRES   REMARKS
CARROLL *      SUNNY     46  30  53 VRB7      29.99S
CHEROKEE *     SUNNY     44  30  59 SW6       29.98F
DENISON *      SUNNY     46  32  57 W6        30.01F
LE MARS *      CLOUDY    45  30  57 SW6       29.99S
ORANGE CITY *  CLOUDY    45  30  57 W5        29.98S
SHELDON *      CLOUDY    43  28  56 W6        29.96F
SIOUX CITY     CLOUDY    46  33  60 NW7       30.01S
SPENCER        SUNNY     43  26  51 W6        29.96F
STORM LAKE *   SUNNY     43  28  56 W6        29.97F
$$

IAZ055>058-069>071-079>083-090>094-231800-
   SOUTHWEST IOWA

CITY           SKY/WX    TMP DP  RH WIND       PRES   REMARKS
ATLANTIC *     SUNNY     48  32  53 NW8       30.01S
AUDUBON *      SUNNY     48  34  57 NW5       30.00F
CLARINDA *     SUNNY     50  34  53 N6G12       N/A
COUNCIL BLFS * SUNNY     50  36  57 W5        30.01F
CRESTON *      SUNNY     48  30  49 N5        30.01F
HARLAN  *      SUNNY     48  34  57 VRB5      30.03F
LAMONI         SUNNY     49  30  48 NW9       29.99F
RED OAK *      SUNNY     52  34  50 NE7       30.01F
SHENANDOAH *   SUNNY     52  36  54 NE5       30.03S
$$

IAZ047>049-059>061-072>074-084-231800-
   CENTRAL IOWA

CITY           SKY/WX    TMP DP  RH WIND       PRES   REMARKS
AMES           SUNNY     44  28  53 N6        29.98S
ANKENY *       SUNNY     45  28  53 NW7       30.00S
BOONE *        SUNNY     45  27  49 W3        29.98R
CHARITON *     SUNNY     46  28  49 NW8       29.98F
DES MOINES     MOSUNNY   45  26  47 NW7       29.99F
GRINNELL*      SUNNY     43  26  50 N3        29.98S
KNOXVILLE *    SUNNY     43  25  49 VRB7      29.97F
MARSHALLTOWN   SUNNY     43  26  51 N5        29.96S
NEWTON *       SUNNY     43  25  49 CALM      29.97F
PELLA *        SUNNY     45  26  47 NW5       30.00R
PERRY *          N/A     44  26  49 W6        30.00S
$$

IAZ004>006-015-016-023>025-035-036-231800-
   NORTH CENTRAL IOWA

CITY           SKY/WX    TMP DP  RH WIND       PRES   REMARKS
ALGONA *       SUNNY     41  27  56 NW5       29.97F
CLARION *      SUNNY     39  27  60 NW9       29.98R WCI  33
ESTHERVILLE    SUNNY     40  26  57 NW3       29.95F
FORT DODGE *   SUNNY     42  27  55 VRB3      29.98S
MASON CITY     SUNNY     40  23  50 NW7       29.97S
FOREST CITY *    N/A     39  25  56 NW6       29.96R WCI  35
WEBSTER CITY * SUNNY     41  27  56 NW8       29.96S
IOWA FALLS *     N/A     43  27  53 NW5       29.97S
$$

IAZ007>011-017>019-026>030-037>042-050>054-066-231800-
   NORTHEAST IOWA

CITY           SKY/WX    TMP DP  RH WIND       PRES   REMARKS
CEDAR RAPIDS   SUNNY     42  23  46 NW7       29.96S
CHARLES CITY * SUNNY     39  21  48 NW3       29.95S
CLINTON *      SUNNY     41  24  51 W7        29.98R
DECORAH *      SUNNY     36  21  55 CALM      29.92F
DUBUQUE        SUNNY     39  22  50 NW5       29.94F
MONTICELLO *   SUNNY     41  21  45 W7        29.95F
OELWEIN *      SUNNY     39  25  56 NW5       29.95F
WATERLOO       SUNNY     40  22  48 W6        29.95F
$$

IAZ064-065-067-068-078-231800-
   EAST CENTRAL IOWA

CITY           SKY/WX    TMP DP  RH WIND       PRES   REMARKS
DAVENPORT      SUNNY     40  23  50 W6        29.99F
IOWA CITY      SUNNY     43  24  47 W3        29.99S
MT. PLEASANT * SUNNY     43  24  47 W8        29.98F
MUSCATINE *    SUNNY     43  23  45 VRB3      29.98F
QUAD CITIES    SUNNY     44  23  43 W8        29.97F
$$

IAZ062-063-075>077-085>089-095>099-231800-
   SOUTHEAST IOWA

CITY           SKY/WX    TMP DP  RH WIND       PRES   REMARKS
BURLINGTON     SUNNY     43  26  51 W6        29.97F
FAIRFIELD *    SUNNY     43  25  49 NW7G13    29.97F
FORT MADISON * SUNNY     45  27  49 W7        29.98F
KEOKUK *       SUNNY     45  27  49 W7        29.98F
OSKALOOSA *      N/A     43  26  51 NW6       29.98F
OTTUMWA        SUNNY     45  26  47 W7        29.98F
WASHINGTON *   SUNNY     43  25  49 NW9       29.98F
$$

ABBREVIATIONS USED IN REMARKS
   TC - TEMPERATURES IN CELSIUS
  WCI - WIND CHILL INDEX
   HX - HEAT INDEX
  VSB - VISIBILITY
$$





USA.gov is the U.S. government's official web portal to all federal, state and local government web resources and services.